Regional Weather Roundup
Issued by NWS

Home | Current Version | Previous Version | Graphics & Text | Print | Product List | Glossary On
Versions: 1 2 3 4 5 6 7 8 9 10 11 12 13 14 15 16 17 18 19 20 21 22 23 24 25 26 27
000
ASUS45 KBOI 241410
RWRID

IDAHO REGIONAL WEATHER ROUNDUP
NATIONAL WEATHER SERVICE BOISE ID
800 AM MDT SUN JUL 24 2016

NOTE: "FAIR" INDICATES FEW OR NO CLOUDS BELOW 12000 FEET
WITH NO SIGNIFICANT WEATHER AND/OR OBSTRUCTIONS TO VISIBILITY

IDZ012-014-241500-
SOUTHWEST IDAHO


CITY           SKY/WX    TMP DP  RH WIND       PRES   REMARKS
BOISE          SUNNY     62  41  46 S3        30.08R
CALDWELL       NOT AVBL
MOUNTAIN HOME  SUNNY     62  39  42 NE5       30.09R
$$

IDZ016-017-241500-
SOUTHCENTRAL IDAHO


CITY           SKY/WX    TMP DP  RH WIND       PRES   REMARKS
BURLEY         SUNNY     57  40  52 CALM      30.15R
JEROME         SUNNY     62  32  32 SE3       30.15R
TWIN FALLS     SUNNY     66  27  23 S8        30.14R
$$

IDZ019>023-241500-
SOUTHEAST IDAHO


CITY           SKY/WX    TMP DP  RH WIND       PRES   REMARKS
IDAHO FALLS    SUNNY     48  40  73 CALM      30.20R
POCATELLO      SUNNY     66  28  24 SW5       30.19R
REXBURG        SUNNY     52  37  56 N3        30.21R
$$

IDZ006-010-011-018-031-032-241500-
CENTRAL IDAHO MOUNTAINS


CITY           SKY/WX    TMP DP  RH WIND       PRES   REMARKS
MCCALL         SUNNY     53  42  66 CALM      30.20R
HAILEY         SUNNY     54  36  50 NW8       30.22R
STANLEY          N/A     43  30  60 CALM      30.31R
SALMON         SUNNY     54  39  58 CALM      30.20S
CHALLIS        SUNNY     58  39  49 CALM      30.23R
$$

IDZ002-004-006-007-026-241500-
NORTHERN IDAHO


CITY           SKY/WX    TMP DP  RH WIND       PRES   REMARKS
LEWISTON       SUNNY     62  48  60 E5        30.11R
LOWELL           N/A     53  49  86 CALM      30.17S
COEUR D`ALENE  SUNNY     59  52  77 E3        30.12S
MULLAN PASS    SUNNY     52  39  61 SE3       30.25R
$$




USA.gov is the U.S. government's official web portal to all federal, state and local government web resources and services.